Regional Weather Roundup
Issued by NWS

Home | Current Version | Previous Version | Graphics & Text | Print | Product List | Glossary On
Versions: 1 2 3 4 5 6 7 8 9 10 11 12 13 14 15 16 17 18 19 20 21 22 23 24 25 26 27
000
ASUS45 KPSR 261110
RWRAZ

ARIZONA HOURLY REGIONAL WEATHER ROUNDUP
NATIONAL WEATHER SERVICE PHOENIX AZ
400 AM MST SUN MAR 26 2017

NOTE: FAIR INDICATES FEW OR NO CLOUDS BELOW 12,000 FEET WITH NO
SIGNIFICANT WEATHER AND/OR OBSTRUCTIONS TO VISIBILITY.

AZZ001>003-036-261200-
NORTHWEST ARIZONA

CITY           SKY/WX    TMP DP  RH WIND       PRES   REMARKS
BULLHEAD CITY  CLEAR     64  39  39 N8        29.90S
KINGMAN        CLEAR     43  21  41 E7        29.98S
$$

AZZ004>008-015-016-018-261200-
NORTH CENTRAL ARIZONA

CITY           SKY/WX    TMP DP  RH WIND       PRES   REMARKS
GRAND CANYON   CLEAR     26  26 100 CALM      30.01F
WILLIAMS       PTCLDY    27  25  93 CALM      30.01S
PRESCOTT       CLEAR     37  31  78 SW5       29.99F WCI  33
FLAGSTAFF      PTCLDY    27  24  89 S5        29.97F WCI  22
PAYSON         CLEAR     45  28  53 CALM      30.00S
PAGE           CLEAR     47  34  60 W6        29.93S
$$

AZZ009>014-017-261200-
NORTHEAST ARIZONA

CITY           SKY/WX    TMP DP  RH WIND       PRES   REMARKS
WINSLOW        CLEAR     35  27  72 SW5       29.96S WCI  31
SAINT JOHNS    CLEAR     35  25  66 S3        29.96F
WINDOW ROCK    CLEAR     32  28  85 S3        29.95F
SHOW LOW       CLEAR     32  21  64 S7        30.00F WCI  26
$$

AZZ023-261200-
GREATER PHOENIX AREA

CITY           SKY/WX    TMP DP  RH WIND       PRES   REMARKS
PHOENIX        CLEAR     61  32  33 CALM      29.86S
BUCKEYE        CLEAR     48  34  57 N6        29.88S
LUKE AFB       CLEAR     55  35  47 CALM      29.87R
DEER VALLEY    CLEAR     52  36  54 CALM      29.87S
SCOTTSDALE     CLEAR     55  36  48 NW6       29.88S
MESA-GATEWAY   CLEAR     50  36  57 SE6       29.89R
$$

AZZ027-028-261200-
SOUTHWEST MARICOPA COUNTY AND PINAL COUNTY

CITY           SKY/WX    TMP DP  RH WIND       PRES   REMARKS
CASA GRANDE    NOT AVBL
GILA BEND      FAIR      55  32  42 S7        29.88S
$$

AZZ503-504-507>509-261200-
SOUTHEAST ARIZONA

CITY           SKY/WX    TMP DP  RH WIND       PRES   REMARKS
TUCSON         CLEAR     55  27  34 SE3       29.94F
DAVIS-MONTHAN  CLEAR     50  28  41 SE7       29.93F
NOGALES        CLEAR     47  29  49 E6        29.96F
SIERRA VISTA   CLEAR     47  27  44 W7        29.99F
DOUGLAS        CLEAR     48  26  42 N12       29.96F
SAFFORD        CLEAR     50  26  39 N8        29.90F
$$

AZZ020-021-025-026-031-261200-
SOUTHWEST ARIZONA

CITY           SKY/WX    TMP DP  RH WIND       PRES   REMARKS
YUMA           CLEAR     60  46  59 W8        29.88F
$$

CAZ031-033-041-043-047-048-061-261200-
SOUTHERN CALIFORNIA

CITY           SKY/WX    TMP DP  RH WIND       PRES   REMARKS
DOWNTOWN L.A.  CLOUDY    57  53  86 CALM      30.01S
L.A. AIRPORT   MOCLDY    57  54  89 CALM      30.02S
SAN DIEGO      MOCLDY    60  54  80 CALM      30.03F
BURBANK        CLEAR     53  48  83 CALM      30.01S
ONTARIO        MOCLDY    52  50  93 CALM      30.01S
RIVERSIDE      PTCLDY    52  51  97 CALM      30.01F
PALM SPRINGS   CLEAR     58  47  66 SE3       29.92F
EL CENTRO NAS  CLEAR     56  39  53 W9        29.90F
IMPERIAL       FAIR      55  43  63 W6        29.88F
BLYTHE         CLEAR     60  40  47 CALM      29.88F
NEEDLES        CLEAR     60  39  45 CALM      29.91S
$$

NVZ020-UTZ003-261200-
SOUTHERN NEVADA-UTAH

CITY           SKY/WX    TMP DP  RH WIND       PRES   REMARKS
LAS VEGAS      PTCLDY    57  37  47 N3        29.96S
SALT LAKE CITY PTCLDY    36  35  96 SE3       30.02S FOG
$$

NMZ009-TXZ055-261200-
NEW MEXICO-WEST TEXAS

CITY           SKY/WX    TMP DP  RH WIND       PRES   REMARKS
ALBUQUERQUE    PTCLDY    40  28  62 SE6       29.92F
EL PASO        PTCLDY    61  23  23 N5        29.89S
$$


........................KEY........................
SKY/WX - SKY CONDITION/WEATHER
TMP    - TEMPERATURE IN FAHRENHEIT
DP     - DEW POINT IN FAHRENHEIT
RH     - RELATIVE HUMIDITY IN PERCENT
WIND   - DIRECTION AND SPEED IN MILES PER HOUR (MPH)
VRB    - VARIABLE WIND DIRECTION
PRES   - MEAN SEA LEVEL PRESSURE IN INCHES OF MERCURY
         F - FALLING PRESSURE   R - RISING PRESSURE
         S - STEADY PRESSURE
VSB    - VISIBILITY IN MILES
HX     - HEAT INDEX IN FAHRENHEIT
WCI    - WIND CHILL INDEX IN FAHRENHEIT
TC     - TEMPERATURE IN CELSIUS WHICH IS ALSO KNOWN AS
         TEMPERATURE IN CENTIGRADE
AFB    - AIR FORCE BASE
         LUKE AFB IS LUKE AIR FORCE BASE
         DAVIS-MONTHAN IS DAVIS-MONTHAN AIR FORCE BASE
NAS    - NAVAL AIR STATION
         EL CENTRO NAS IS EL CENTRO NAVAL AIR STATION
N/A    - NOT AVAILABLE





USA.gov is the U.S. government's official web portal to all federal, state and local government web resources and services.